Hazen, ND

8:26 PM CDT on April 28, 2017 (GMT -0500)
Mercer County Regional

Weather History for KHZE - January, 2014

Change the Weather History Date:

Monday, January 20, 2014

  Actual Average (KN60) Record (KN60)
Temperature  
Mean Temperature 14 °F -  
Max Temperature 35 °F 16 °F 33 °F (2015)
Min Temperature -7 °F 0 °F 6 °F (2017)
Degree Days  
Heating Degree Days 51    
Moisture  
Dew Point 3 °F    
Average Humidity 73    
Maximum Humidity 87    
Minimum Humidity 61    
Precipitation  
Precipitation 0.51 in - - ()
Sea Level Pressure  
Sea Level Pressure 30.24 in    
Wind  
Wind Speed 16 mph (NNW)    
Max Wind Speed 36 mph    
Max Gust Speed 48 mph    
Visibility 8 miles    
Events Snow    
Averages and records for this station are not official NWS values.
T = Trace of Precipitation, MM = Missing Value Source: NWS Daily Summary

Daily Weather History Graph

Daily Weather History Graph

Search for Another Location

Airport or City:

Trip Planner

Search our weather history database for the weather conditions in past years. The results will help you decide how hot, cold, wet, or windy it might be!

Date:

Astronomy

Jan. 20, 2014 Rise Set
Actual Time 8:24 AM CST 5:30 PM CST
Civil Twilight 7:50 AM CST 6:04 PM CST
Nautical Twilight 7:13 AM CST 6:42 PM CST
Astronomical Twilight 6:36 AM CST 7:18 PM CST
Moon 10:29 PM CST (1/20) 10:05 AM CST (1/20)
Length of Visible Light 10h 13m
Length of Day
9h 05m
Waning Gibbous, 82% of the Moon is Illuminated
Jan 20
Waning Gibbous
Jan 23
Last Quarter
Jan 30
New
Feb 6
First Quarter
Feb 14
Full

Hourly Weather History & Observations

Time (CST) Temp. Windchill Dew Point Humidity Pressure Visibility Wind Dir Wind Speed Gust Speed Precip Events Conditions
12:15 AM 35.6 °F 25.9 °F 26.6 °F 70% 29.81 in 10.0 mi WNW 16.1 mph 24.2 mph N/A   Scattered Clouds
12:35 AM 33.8 °F 23.5 °F 26.6 °F 75% 29.82 in 10.0 mi WNW 16.1 mph 21.9 mph N/A   Partly Cloudy
12:55 AM 33.8 °F 23.5 °F 26.6 °F 75% 29.82 in 10.0 mi WNW 16.1 mph - N/A   Clear
1:15 AM 32.0 °F 20.8 °F 24.8 °F 75% 29.81 in 10.0 mi WNW 17.3 mph 21.9 mph N/A   Clear
1:35 AM 32.0 °F 22.1 °F 24.8 °F 75% 29.82 in 10.0 mi WNW 13.8 mph 19.6 mph N/A   Partly Cloudy
1:55 AM 32.0 °F 22.1 °F 24.8 °F 75% 29.82 in 10.0 mi WNW 13.8 mph 23.0 mph N/A   Clear
2:15 AM 32.0 °F 22.5 °F 24.8 °F 75% 29.82 in 10.0 mi West 12.7 mph - N/A   Mostly Cloudy
2:35 AM 32.0 °F 21.6 °F 24.8 °F 75% 29.82 in 10.0 mi West 15.0 mph - N/A   Overcast
2:55 AM 32.0 °F 22.5 °F 24.8 °F 75% 29.84 in 10.0 mi West 12.7 mph - N/A   Overcast
3:15 AM 32.0 °F 18.1 °F 24.8 °F 75% 29.85 in 8.0 mi WNW 27.6 mph 34.5 mph N/A   Overcast
3:35 AM 32.0 °F 21.2 °F 28.4 °F 87% 29.86 in 3.0 mi WNW 16.1 mph 25.3 mph 0.07 in Snow Light Snow
3:55 AM 32.0 °F 21.6 °F 28.4 °F 87% 29.86 in 4.0 mi WNW 15.0 mph - 0.12 in Snow Light Snow
4:15 AM 32.0 °F 19.5 °F 28.4 °F 87% 29.86 in 4.0 mi WNW 21.9 mph 29.9 mph 0.01 in Snow Light Snow
4:35 AM 32.0 °F 19.8 °F 28.4 °F 87% 29.86 in 10.0 mi WNW 20.7 mph 29.9 mph 0.04 in Snow Light Snow
4:55 AM 32.0 °F 20.5 °F 28.4 °F 87% 29.87 in 10.0 mi WNW 18.4 mph 29.9 mph 0.04 in Snow Light Snow
5:15 AM 32.0 °F 19.5 °F 28.4 °F 87% 29.87 in 8.0 mi WNW 21.9 mph 31.1 mph N/A Snow Light Snow
5:35 AM 32.0 °F 18.6 °F 26.6 °F 80% 29.87 in 10.0 mi NW 25.3 mph 41.4 mph N/A Snow Light Snow
5:55 AM 32.0 °F 19.5 °F 26.6 °F 80% 29.87 in 10.0 mi NW 21.9 mph 29.9 mph N/A   Overcast
6:15 AM 32.0 °F 16.5 °F 24.8 °F 75% 29.90 in 10.0 mi NW 35.7 mph 48.3 mph N/A Snow Light Snow
6:35 AM 28.4 °F 13.3 °F 23.0 °F 80% 29.91 in 7.0 mi NW 27.6 mph 44.9 mph N/A Snow Light Snow
6:55 AM 26.6 °F 9.6 °F 23.0 °F 86% 29.93 in 7.0 mi NW 33.4 mph 43.7 mph 0.03 in Snow Light Snow
7:15 AM 23.0 °F 8.0 °F 17.6 °F 80% 29.97 in 2.5 mi North 20.7 mph 47.2 mph 0.03 in Snow Light Snow
7:35 AM 14.0 °F -3.9 °F 8.6 °F 79% 30.03 in 2.0 mi NNE 20.7 mph - 0.06 in Snow Light Snow
7:55 AM 10.4 °F -9.1 °F 5.0 °F 79% 30.07 in 2.5 mi NNE 21.9 mph 27.6 mph 0.12 in Snow Light Snow
8:15 AM 6.8 °F -13.8 °F 1.4 °F 79% 30.13 in 2.0 mi NNE 21.9 mph 26.5 mph 0.03 in Snow Light Snow
8:35 AM 5.0 °F -16.2 °F -0.4 °F 78% 30.16 in 1.0 mi NNE 21.9 mph 29.9 mph 0.10 in Snow Light Snow
8:55 AM 5.0 °F -16.2 °F -2.2 °F 72% 30.19 in 1.5 mi NNE 21.9 mph 29.9 mph 0.15 in Snow Light Snow
9:15 AM 5.0 °F -14.2 °F -2.2 °F 72% 30.23 in 2.5 mi NNE 17.3 mph 27.6 mph 0.01 in Snow Light Snow
9:35 AM 5.0 °F -16.7 °F -2.2 °F 72% 30.28 in 1.2 mi North 23.0 mph 29.9 mph 0.03 in Snow Light Snow
9:55 AM 3.2 °F -17.1 °F -2.2 °F 78% 30.29 in 4.0 mi North 18.4 mph 26.5 mph 0.05 in Snow Light Snow
10:15 AM 1.4 °F -22.3 °F -4.0 °F 78% 30.33 in 5.0 mi North 25.3 mph 31.1 mph N/A Snow Light Snow
10:35 AM -0.4 °F -22.8 °F -7.6 °F 72% 30.36 in 5.0 mi North 20.7 mph 29.9 mph N/A Snow Light Snow
10:55 AM -0.4 °F -21.7 °F -7.6 °F 72% 30.39 in 3.0 mi North 18.4 mph - N/A   Haze
11:15 AM -0.4 °F -22.3 °F -7.6 °F 72% 30.41 in 3.0 mi North 19.6 mph 25.3 mph N/A   Haze
11:35 AM -0.4 °F -21.7 °F -9.4 °F 66% 30.43 in 10.0 mi North 18.4 mph - N/A   Overcast
11:55 AM -0.4 °F -21.2 °F -7.6 °F 72% 30.44 in 8.0 mi North 17.3 mph 20.7 mph N/A   Overcast
12:15 PM -0.4 °F -20.5 °F -7.6 °F 72% 30.44 in 4.0 mi North 16.1 mph 23.0 mph N/A   Haze
12:35 PM -0.4 °F -22.3 °F -9.4 °F 66% 30.46 in 10.0 mi North 19.6 mph 23.0 mph N/A   Scattered Clouds
12:55 PM -0.4 °F -20.5 °F -9.4 °F 66% 30.45 in 10.0 mi North 16.1 mph - N/A   Mostly Cloudy
1:15 PM -0.4 °F -21.2 °F -9.4 °F 66% 30.46 in 10.0 mi North 17.3 mph 20.7 mph N/A   Mostly Cloudy
1:35 PM -0.4 °F -19.2 °F -9.4 °F 66% 30.46 in 10.0 mi North 13.8 mph - N/A   Scattered Clouds
1:55 PM 1.4 °F -16.1 °F -9.4 °F 61% 30.45 in 10.0 mi North 12.7 mph - N/A   Scattered Clouds
2:15 PM 1.4 °F -15.3 °F -7.6 °F 66% 30.45 in 10.0 mi NNW 11.5 mph - N/A   Scattered Clouds
2:35 PM 1.4 °F -16.9 °F -9.4 °F 61% 30.47 in 10.0 mi North 13.8 mph - N/A   Scattered Clouds
2:55 PM 1.4 °F -16.1 °F -7.6 °F 66% 30.47 in 10.0 mi NNW 12.7 mph 17.3 mph N/A   Scattered Clouds
3:15 PM 1.4 °F -14.5 °F -9.4 °F 61% 30.45 in 10.0 mi North 10.4 mph 16.1 mph N/A   Scattered Clouds
3:35 PM 1.4 °F -14.5 °F -9.4 °F 61% 30.47 in 10.0 mi NNW 10.4 mph - N/A   Scattered Clouds
3:55 PM 1.4 °F -13.5 °F -7.6 °F 66% 30.48 in 10.0 mi North 9.2 mph - N/A   Scattered Clouds
4:35 PM 1.4 °F -14.5 °F -9.4 °F 61% 30.48 in 10.0 mi North 10.4 mph - N/A   Clear
4:55 PM -0.4 °F -15.7 °F -9.4 °F 66% 30.50 in 10.0 mi North 9.2 mph - N/A   Clear
5:15 PM -0.4 °F -13.4 °F -9.4 °F 66% 30.50 in 10.0 mi North 6.9 mph - N/A   Clear
5:35 PM -0.4 °F -8.3 °F -9.4 °F 66% 30.50 in 10.0 mi NNW 3.5 mph - N/A   Clear
5:55 PM -2.2 °F -10.4 °F -11.2 °F 66% 30.50 in 10.0 mi ENE 3.5 mph - N/A   Clear
6:15 PM -2.2 °F -10.4 °F -9.4 °F 71% 30.50 in 10.0 mi ENE 3.5 mph - N/A   Scattered Clouds
6:35 PM -2.2 °F -10.4 °F -11.2 °F 66% 30.50 in 10.0 mi ESE 3.5 mph - N/A   Overcast
6:55 PM -4.0 °F -16.3 °F -11.2 °F 71% 30.50 in 10.0 mi SSE 5.8 mph - N/A   Overcast
7:15 PM -5.8 °F -14.5 °F -13.0 °F 71% 30.51 in 10.0 mi SSE 3.5 mph - N/A   Overcast
7:35 PM -5.8 °F -14.5 °F -13.0 °F 71% 30.51 in 10.0 mi SE 3.5 mph - N/A   Overcast
7:55 PM -5.8 °F -16.7 °F - N/A% 30.49 in 10.0 mi SE 4.6 mph - N/A   Overcast
8:15 PM -5.8 °F -16.7 °F -13.0 °F 71% 30.48 in 10.0 mi SE 4.6 mph - N/A   Overcast
8:35 PM -7.6 °F - -13.0 °F 77% 30.49 in 10.0 mi Calm Calm - N/A   Overcast
8:55 PM -7.6 °F -16.5 °F -13.0 °F 77% 30.49 in 10.0 mi SSE 3.5 mph - N/A   Overcast
9:15 PM -7.6 °F -20.6 °F -13.0 °F 77% 30.49 in 10.0 mi South 5.8 mph - N/A   Overcast
9:35 PM -7.6 °F - -13.0 °F 77% 30.48 in 10.0 mi Calm Calm - N/A   Overcast
9:55 PM -4.0 °F -14.6 °F - N/A% 30.47 in 10.0 mi SSE 4.6 mph - N/A   Mostly Cloudy
10:15 PM -4.0 °F -17.8 °F -11.2 °F 71% 30.45 in 10.0 mi SSE 6.9 mph - N/A   Mostly Cloudy
10:35 PM -2.2 °F -14.2 °F -11.2 °F 66% 30.44 in 10.0 mi SSE 5.8 mph - N/A   Mostly Cloudy
10:55 PM -2.2 °F -12.5 °F -9.4 °F 71% 30.42 in 10.0 mi SE 4.6 mph - N/A   Mostly Cloudy
11:15 PM -0.4 °F -15.7 °F -9.4 °F 66% 30.41 in 10.0 mi South 9.2 mph - N/A   Mostly Cloudy
11:35 PM -0.4 °F -16.7 °F -7.6 °F 72% 30.41 in 10.0 mi South 10.4 mph - N/A   Mostly Cloudy
11:55 PM -0.4 °F -17.6 °F -7.6 °F 72% 30.39 in 10.0 mi South 11.5 mph - N/A   Mostly Cloudy